User: anonymous   Login
Location: Caltech
(34.1382°N, 118.1253°W)
Time: 09:24:21
(UTC-07:00)
Language:

Uribyol 2 - Orbit

View from above orbital plane
View from above orbital plane
View from above satellite
View from above satellite

Ground track
Ground track

The orbit data is extracted from the following two-line orbital elements,

1 22828U 93061F   15213.10066015  .00000020  00000-0  24873-4 0  9992
2 22828 098.6972 162.5177 0010656 134.1539 226.0521 14.30519754107845
Epoch (UTC): 01 August 2015 02:24:57
Eccentricity: 0.0010656
inclination: 98.6972°
perigee height: 782 km
apogee height: 797 km
right ascension of ascending node: 162.5177°
argument of perigee: 134.1539°
revolutions per day: 14.30519754
mean anomaly at epoch: 226.0521°
orbit number at epoch: 10784

The dashed part of the orbit path shows where the satellite is in the earth's shadow,  

DLR